Regional Weather Roundup
Issued by NWS Cleveland, OH

Home | Current Version | Previous Version | Graphics & Text | Print | Product List | Glossary On
Versions: 1 2 3 4 5 6 7 8 9 10 11 12 13 14 15 16 17 18 19 20 21 22 23 24 25 26 27 28 29 30 31 32 33 34 35 36 37 38 39 40 41 42 43 44 45 46 47 48 49 50
000
ASUS41 KCLE 282110
RWRCLE
OHIO REGIONAL WEATHER ROUNDUP
NATIONAL WEATHER SERVICE WILMINGTON, OH
500 PM EDT THU APR 28 2016

NOTE: "FAIR" INDICATES FEW OR NO CLOUDS BELOW 12,000 FEET WITH NO
SIGNIFICANT WEATHER AND/OR OBSTRUCTIONS TO VISIBILITY.

OHZ001>008-015>018-024>027-034-035-043-044-282200-
   NORTHWEST OHIO

CITY           SKY/WX    TMP DP  RH WIND       PRES   REMARKS
DEFIANCE       CLOUDY    53  42  66 NE13G21   29.92F
FINDLAY        CLOUDY    52  43  71 NE9       29.90R
TOLEDO EXPRESS CLOUDY    48  36  63 E17       29.94S
TOLEDO EXEC    CLOUDY    48  36  63 NE13      29.95S
LIMA           CLOUDY    50  48  93 NE7       29.89S FOG
$$

OHZ009>014-019>023-028>033-038-089-282200-
   NORTHEAST OHIO

CITY           SKY/WX    TMP DP  RH WIND       PRES   REMARKS
CLE-HOPKINS    CLOUDY    50  45  83 NE6       29.95R
CLE-LAKEFRONT  CLOUDY    48  45  89 NE13      29.92S
CUY CO. ARPT   LGT RAIN  48  45  87 E7        29.93S FOG
LORAIN-ELYRIA  CLOUDY    49  45  86 NE8       29.92F
ASHTABULA      LGT RAIN  48  44  86 E7        29.94R
AKRON-CANTON   CLOUDY    48  44  86 E7        29.91R
WOOSTER        CLOUDY    50  46  86 E10       29.89F
MANSFIELD      CLOUDY    51  47  86 E5        29.89S
YOUNGSTOWN     CLOUDY    48  44  86 E9        29.91S
$$

OHZ042-051>053-060>062-070>072-077>081-282200-
  SOUTHWEST OHIO

CITY           SKY/WX    TMP DP  RH WIND       PRES   REMARKS
CINC-COVINGTON PTSUNNY   70  62  76 W3        29.82R
CINC-LUNKEN    CLOUDY    65  62  90 NW5G36    29.82R
HAMILTON       FAIR      77  58  51 W12       29.80F
DAYTON         CLOUDY    65  58  78 NE6       29.83F
WRIGHT-PAT AFB PTSUNNY   66  61  81 N7        29.82F
DAYTON GENERAL FAIR      70  58  65 CALM      29.80F
WILMINGTON     FAIR      71  62  73 NW8       29.81F
$$

OHZ036-037-039>041-045>050-054>059-063>069-073>076-082>088-282200-
  CENTRAL AND SOUTHEAST OHIO

CITY           SKY/WX    TMP DP  RH WIND       PRES   REMARKS
COLUMBUS       PTSUNNY   65  55  70 N8        29.83F
OSU AIRPORT    CLOUDY    62  53  72 N7        29.84F
BOLTON FIELD   MOSUNNY   66  55  68 N9        29.84S
RICKENBACK AFB PTSUNNY   65  58  76 N6        29.83S
NEWARK         CLOUDY    62  51  67 N10G16    29.84S
MARION         CLOUDY    54  49  83 NE6       29.88F
LANCASTER      FAIR      69  61  75 N10       29.83S
ZANESVILLE     CLOUDY    66  54  65 N7        29.84F
NEW PHILLY     CLOUDY    53  48  83 N6        29.89S
$$




USA.gov is the U.S. government's official web portal to all federal, state and local government web resources and services.